This demonstration page uses our WeatherBlox Daily Observations layout. Learn more.

Hourly Observations for August 28, 2019

Temp ( °F °C ) Dew Point ( °F °C ) Humidity (%) Winds ( mph kmh ) Pressure ( in mb ) Visibility ( mi km ) Precip ( " mm )
12:15 am 00:15 Clear 58 14.5 54 12 85 85 Calm 30.09 1019 10 16.09344 0 0
12:35 am 00:35 Clear 58 14.7 54 12 84 84 Calm 30.09 1019 10 16.09344 0 0
12:55 am 00:55 Clear 58 14.2 53 11.9 86 86 Calm 30.09 1019 10 16.09344 0 0
1:15 am 01:15 Clear 55 12.9 53 11.5 91 91 Calm 30.12 1020 10 16.09344 0 0
1:35 am 01:35 Clear 54 12.1 53 11.6 97 97 WNW 3 6 30.12 1020 10 16.09344 0 0
1:55 am 01:55 Clear 54 12 53 11.5 97 97 Calm 30.12 1020 10 16.09344 0 0
2:15 am 02:15 Clear 53 11.7 52 11.3 97 97 W 3 6 30.12 1020 10 16.09344 0 0
2:35 am 02:35 Clear 54 12.2 53 11.8 97 97 W 3 6 30.12 1020 10 16.09344 0 0
2:55 am 02:55 Clear 54 12 52 11.2 95 95 Calm 30.12 1020 10 16.09344 0 0
3:15 am 03:15 Clear 53 11.8 53 11.4 97 97 Calm 30.12 1020 10 16.09344 0 0
3:35 am 03:35 Clear 52 11 51 10.8 99 99 Calm 30.12 1020 10 16.09344 0 0
3:55 am 03:55 Clear 50 10 50 9.9 99 99 Calm 30.15 1021 10 16.09344 0 0
4:15 am 04:15 Clear 51 10.3 51 10.3 100 100 Calm 30.15 1021 10 16.09344 0 0
4:35 am 04:35 Partly Cloudy 51 10.6 51 10.6 100 100 Calm 30.12 1020 10 16.09344 0 0
4:55 am 04:55 Partly Cloudy 52 11 52 11 100 100 Calm 30.12 1020 10 16.09344 0 0
5:15 am 05:15 Clear 51 10.8 51 10.8 100 100 Calm 30.12 1020 10 16.09344 0 0
5:35 am 05:35 Partly Cloudy 51 10.7 51 10.7 100 100 Calm 30.12 1020 10 16.09344 0 0
5:55 am 05:55 Mostly Cloudy 51 10.7 51 10.7 100 100 Calm 30.12 1020 10 16.09344 0 0
6:15 am 06:15 Cloudy 52 11.3 52 11.3 100 100 Calm 30.12 1020 10 16.09344 0 0
6:35 am 06:35 Cloudy 53 11.6 53 11.6 100 100 Calm 30.12 1020 10 16.09344 0 0
6:55 am 06:55 Mostly Cloudy 53 11.6 53 11.6 100 100 Calm 30.12 1020 10 16.09344 0 0
7:15 am 07:15 Cloudy 54 12 54 12 100 100 Calm 30.12 1020 10 16.09344 0 0
7:35 am 07:35 Cloudy 55 12.6 55 12.6 100 100 Calm 30.12 1020 10 16.09344 0 0
7:55 am 07:55 Mostly Cloudy 55 13 55 12.7 98 98 Calm 30.12 1020 10 16.09344 0 0
8:15 am 08:15 Mostly Cloudy 57 13.8 56 13.4 97 97 Calm 30.09 1019 10 16.09344 0 0
8:35 am 08:35 Cloudy 59 15.1 57 13.9 93 93 Calm 30.09 1019 10 16.09344 0 0
8:55 am 08:55 Cloudy 62 16.5 58 14.3 87 87 Calm 30.09 1019 10 16.09344 0 0
9:15 am 09:15 Mostly Cloudy 63 17.3 56 13.1 77 77 SSW 5 7 30.06 1018 10 16.09344 0 0
9:35 am 09:35 Cloudy 63 17.4 57 14 81 81 Calm 30.06 1018 10 16.09344 0 0
9:55 am 09:55 Cloudy 65 18.6 58 14.5 77 77 S 6 9 30.06 1018 10 16.09344 0 0
10:15 am 10:15 Mostly Cloudy 67 19.6 60 15.3 76 76 S 6 9 30.06 1018 10 16.09344 0 0
10:35 am 10:35 Partly Cloudy 71 21.4 59 14.8 66 66 S 9 15 30.03 1017 10 16.09344 0 0
10:55 am 10:55 Sunny 72 22 58 14.3 62 62 SSW 14 22 30.03 1017 10 16.09344 0 0
11:15 am 11:15 Partly Cloudy 72 22.2 58 14.6 62 62 SSW 15 24 30.03 1017 10 16.09344 0 0
11:35 am 11:35 Partly Cloudy 73 22.8 59 15.1 62 62 SSW 14 22 30.03 1017 10 16.09344 0 0
11:55 am 11:55 Sunny 74 23.6 60 15.3 60 60 SW 12 19 30.03 1017 10 16.09344 0 0
12:15 pm 12:15 Sunny 75 24 60 15.6 59 59 SSW 14 22 30.03 1017 10 16.09344 0 0
12:30 pm 12:30 Sunny 76 24.6 61 16.1 59 59 SSW 12 19 30 1016 10 16.09344 0 0
12:55 pm 12:55 Sunny 77 25.1 61 16.3 58 58 S 12 19 29.97 1015 10 16.09344 0 0
1:15 pm 13:15 Sunny 78 25.4 62 16.7 59 59 SSW 9 15 29.97 1015 10 16.09344 0 0
1:35 pm 13:35 Sunny 79 26 64 17.6 60 60 SSW 10 17 29.97 1015 10 16.09344 0 0
1:55 pm 13:55 Sunny 80 26.4 64 17.8 59 59 SSW 13 20 29.94 1014 10 16.09344 0 0
2:15 pm 14:15 Sunny 80 26.7 64 18 59 59 S 7 11 29.94 1014 10 16.09344 0 0
2:35 pm 14:35 Partly Cloudy 81 27.4 66 18.7 59 59 SSW 14 22 29.91 1013 10 16.09344 0 0
2:55 pm 14:55 Mostly Cloudy 80 26.9 65 18.5 60 60 SSW 9 15 29.94 1014 10 16.09344 0 0
3:15 pm 15:15 Mostly Cloudy 81 27.2 66 18.9 61 61 S 14 22 29.88 1012 10 16.09344 0 0
3:35 pm 15:35 Partly Cloudy 82 28 67 19.2 59 59 SSW 14 22 29.88 1012 10 16.09344 0 0
3:55 pm 15:55 Mostly Cloudy 82 27.8 67 19.2 60 60 S 10 17 29.88 1012 10 16.09344 0 0
4:15 pm 16:15 Partly Cloudy 83 28.2 67 19.5 59 59 S 14 22 29.88 1012 10 16.09344 0 0
4:35 pm 16:35 Mostly Cloudy 83 28.6 67 19.7 59 59 S 15 24 29.85 1011 10 16.09344 0 0
4:55 pm 16:55 Mostly Cloudy 84 28.7 67 19.6 58 58 S 13 20 29.85 1011 10 16.09344 0 0
5:15 pm 17:15 Partly Cloudy 83 28.6 67 19.4 58 58 SSW 15 24 29.85 1011 10 16.09344 0 0
5:35 pm 17:35 Partly Cloudy 84 28.7 67 19.3 57 57 SSW 13 20 29.83 1010 10 16.09344 0 0
5:55 pm 17:55 Sunny 83 28.6 66 19.1 56 56 S 12 19 29.83 1010 10 16.09344 0 0
6:15 pm 18:15 Sunny 84 28.7 67 19.4 57 57 S 8 13 29.83 1010 10 16.09344 0 0
6:35 pm 18:35 Sunny 83 28.4 67 19.7 59 59 S 7 11 29.83 1010 10 16.09344 0 0
6:55 pm 18:55 Sunny 82 27.9 68 20 62 62 S 7 11 29.8 1009 10 16.09344 0 0
7:15 pm 19:15 Sunny 81 27 69 20.7 68 68 SSE 6 9 29.8 1009 10 16.09344 0 0
7:35 pm 19:35 Sunny 79 25.9 69 20.3 71 71 SSE 7 11 29.83 1010 10 16.09344 0 0
7:55 pm 19:55 Sunny 77 24.9 68 20.2 75 75 SSE 6 9 29.83 1010 10 16.09344 0 0
8:15 pm 20:15 Sunny 74 23.6 68 20.2 81 81 SSE 5 7 29.83 1010 10 16.09344 0 0
8:35 pm 20:35 Clear 73 22.7 68 20 85 85 SSE 5 7 29.83 1010 10 16.09344 0 0
8:55 pm 20:55 Clear 72 22.1 67 19.6 86 86 SSE 6 9 29.85 1011 10 16.09344 0 0
9:15 pm 21:15 Clear 72 22 67 19.2 84 84 SSE 7 11 29.85 1011 10 16.09344 0 0
9:35 pm 21:35 Clear 71 21.5 67 19.2 87 87 SSE 6 9 29.85 1011 10 16.09344 0 0
9:55 pm 21:55 Clear 71 21.5 66 19.1 86 86 SSE 7 11 29.88 1012 10 16.09344 0 0
10:15 pm 22:15 Clear 71 21.5 66 19.1 86 86 S 8 13 29.88 1012 10 16.09344 0 0
10:35 pm 22:35 Clear 70 21.2 66 19.1 88 88 SSE 7 11 29.88 1012 10 16.09344 0 0
10:55 pm 22:55 Clear 69 20.8 66 19.1 90 90 S 8 13 29.88 1012 10 16.09344 0 0
11:15 pm 23:15 Clear 69 20.6 66 19 91 91 S 7 11 29.85 1011 10 16.09344 0 0
11:35 pm 23:35 Clear 69 20.7 66 19.1 91 91 S 8 13 29.88 1012 10 16.09344 0 0
11:55 pm 23:55 Clear 69 20.7 66 19 90 90 S 8 13 29.88 1012 10 16.09344 0 0

Powered by AerisWeather